STARLINK-1987 (47583 NORAD) Tracking and Keplerian Element Data
This shows tracking and keplerian element data for the satellite.
Feedback or suggestion? Click here.
Element | Value |
Catalog | 47583 |
Name | STARLINK-1987 |
Epoch Orbit | 177 |
Epoch Day | 101.91668981 |
Epoch Year | 2021 |
RAAN | 157.5519 |
Inclination | 53.0523 |
Eccentricity | 0.0003646 |
Argument of Perigee | 11.4051 |
Mean Anonmoly | 231.022 |
Mean Motion | 15.62860139 |
Decay Rate | -0.00063645 |
L1 | 1 47583U 21009AM 21101.91668981 -.00063645 00000-0 -69151-3 0 9993 |
L2 | 2 47583 53.0523 157.5519 0003646 11.4051 231.0220 15.62860139 1777 |
Live tracking and technical data element details for STARLINK-1987 (NORAD 47583). STARLINK-1987 can be tracked NOW for your location showing map with azimuth and elevation plus other details from your city location.
Track the satellite on the map from your city or location and see movement details for azimuth, elevation, latitude, longitude, range, height, and movement on the map or in text.
IsCatalogInMostPopularTable: catalog: 47583, numindb: 14
Update: records affected: 1
GetName: 47583 STARLINK-1987
Hit Count: updated at: Tue, 13 Apr 2021 05:33:38 GMT